{"data":{"norad_id":67805,"intl_designator":"2026-032J","name":"STARLINK-36782","alt_names":[],"object_type":"PAYLOAD","status":"ACTIVE","operator":null,"country":"US","launch_date":"2026-02-15","launch_site_code":"AFWTR","launch_vehicle":null,"mission":null,"orbit_class":"UNKNOWN","rcs_meters":null,"size_class":null,"mass_kg":null,"dimensions":null,"purposes":["comms"],"wikipedia_slug":null,"has_3d_model":false,"image_url":null,"decayed_at":null,"tle_current":{"epoch":"2026-09-19T19:48:50.083488Z","epoch_age_seconds":124749,"freshness":"FRESH","line1":"1 67805U 26032J   26262.82557967  .00020003  00000+0  62075-3 0  9993","line2":"2 67805  97.2859  89.2699 0002389 104.9173 255.2335 15.33418826 34719","mean_motion":15.33418826,"eccentricity":0.0002389,"inclination_deg":97.2859,"raan_deg":89.2699,"arg_perigee_deg":104.9173,"mean_anomaly_deg":255.2335,"bstar":0.00062075,"rev_number":3471,"period_min":93.907807546377,"perigee_km":463.98607719649,"apogee_km":467.25602479325,"semimajor_km":6843.7580509949,"source":"CELESTRAK","updated_at":"2026-09-20T09:00:43.663347Z"}}}